This demonstration page uses our WeatherBlox Daily Observations layout. Learn more.

Left ArrowRight Arrow

38.89511, -77.03637

Hourly Observations for August 13, 2022

Temp ( °F °C ) Dew Point ( °F °C ) Humidity (%) Winds ( mph kmh ) Pressure ( in mb ) Visibility ( mi km ) Precip ( " mm )
12:52 am 00:52 Clear 69 20.6 58 14.4 68 68 NNW 7 11 30.08 1019 10 16 0.00 0.00
1:52 am 01:52 Clear 69 20.6 54 12.2 59 59 NNW 8 13 30.08 1019 10 16 0.00 0.00
2:52 am 02:52 Clear 68 20 52 11.1 57 57 NNW 9 15 30.09 1019 10 16 0.00 0.00
3:52 am 03:52 Clear 68 20 49 9.4 50 50 NNE 10 17 30.11 1020 10 16 0.00 0.00
4:52 am 04:52 Clear 65 18.3 52 11.1 63 63 N 7 11 30.13 1020 10 16 0.00 0.00
5:52 am 05:52 Clear 64 17.8 50 10 60 60 N 9 15 30.13 1020 10 16 0.00 0.00
6:52 am 06:52 Sunny 65 18.3 52 11.1 63 63 NNW 9 15 30.15 1021 10 16 0.00 0.00
7:52 am 07:52 Sunny 68 20 52 11.1 57 57 N 8 13 30.16 1021 10 16 0.00 0.00
8:52 am 08:52 Sunny 72 22.2 52 11.1 49 49 NNE 13 20 30.16 1021 10 16 0.00 0.00
9:52 am 09:52 Mostly Sunny 75 23.9 53 11.7 46 46 ENE 8 13 30.16 1021 10 16 0.00 0.00
10:52 am 10:52 Mostly Sunny 77 25 53 11.7 43 43 NE 12 19 30.16 1022 10 16 0.00 0.00
11:52 am 11:52 Mostly Sunny 79 26.1 52 11.1 39 39 VRB 5 7 30.16 1021 10 16 0.00 0.00
12:52 pm 12:52 Mostly Sunny 80 26.7 50 10 35 35 NW 10 17 30.14 1021 10 16 0.00 0.00
1:52 pm 13:52 Mostly Sunny 81 27.2 49 9.4 33 33 N 9 15 30.12 1020 10 16 0.00 0.00
2:52 pm 14:52 Mostly Sunny 83 28.3 47 8.3 28 28 VRB 7 11 30.11 1020 10 16 0.00 0.00
3:52 pm 15:52 Mostly Sunny 84 28.9 47 8.3 27 27 WNW 5 7 30.09 1019 10 16 0.00 0.00
4:52 pm 16:52 Partly Cloudy 83 28.3 47 8.3 28 28 ESE 5 7 30.07 1018 10 16 0.00 0.00
5:52 pm 17:52 Partly Cloudy 81 27.2 48 8.9 32 32 E 5 7 30.06 1018 10 16 0.00 0.00
6:52 pm 18:52 Mostly Cloudy 81 27.2 45 7.2 28 28 Calm 30.06 1018 10 16 0.00 0.00
7:52 pm 19:52 Mostly Cloudy 78 25.6 48 8.9 35 35 SW 5 7 30.07 1018 10 16 0.00 0.00
8:52 pm 20:52 Mostly Cloudy 77 25 53 11.7 43 43 SSE 3 6 30.08 1019 10 16 0.00 0.00
9:52 pm 21:52 Mostly Cloudy 76 24.4 56 13.3 50 50 Calm 30.08 1019 10 16 0.00 0.00
10:52 pm 22:52 Mostly Cloudy 73 22.8 58 14.4 59 59 S 5 7 30.08 1019 10 16 0.00 0.00
11:52 pm 23:52 Cloudy 72 22.2 58 14.4 61 61 SW 5 7 30.08 1019 10 16 0.00 0.00

Powered by AerisWeather